STARLINK-34576, 64701

Orbit data source: Space-Track

STARLINK-34576, 64701 is a payload satellite owned by SpaceX/Seattle (US) in LEO that was launched on Sat, 28 Jun 2025 UTC via an FALCON 9 launch vehicle from the Air Force Western Test Range (AFWTR). Payload-class satellites include a variety of spacecraft equipped with specific instruments for various scientific and technological missions. These include communications satellites like Starlink; space stations such as the ISS; scientific satellites like the Hubble; Earth observation satellites from companies like Planet Labs, Umbra, and HawkEye 360; GPS; miniature CubeSats for education and research; and military/defense satellites.

Loading next visibility...
Identifier
64701, 2025-142F
Orbit
LEO
Country
Flag of USUS
Related business
Manufacturer
SpaceX/Seattle
Mission
Operational Commercial Communications
Bus & Motor
STARLINK V2MO, Unknown motor
Mass
575 kg wet, ~530 kg dry
Launch date (UTC)
2025-06-28 (1 year ago)
Launch vehicle
FALCON 9
Launch site
Air Force Western Test Range (AFWTR)
Object type
Payload
Rocket body
Debris
Shape & HBR
Box + 2 Pan, 17.7 m
Radar Cross Section
36.964 m², Large (>1 m²)

Expand to show TLE details & history
Last TLE update: 8 hours ago

TLE from 8 hours ago
0 STARLINK-34576
1 64701U 25142F   26207.61680857  .00002210  00000-0  19284-3 0  9992
2 64701  70.0032 324.0252 0003264 273.4810  86.5976 14.98348689 60287
Epoch: 2026-07-26T14:48Z
TLE epoch observation values (Epoch: 2026-07-26T14:48:12.260Z)
Latitude
Longitude
157.66195°
Altitude
574.288 km
Speed
7.574 km/s
True Right ascension
21h 36m 06s
True Declination
0° 00' 00"
Sunlit
Object was in full shadow at epoch
Visualization orbit readout
Latitude
Unknown
Longitude
Unknown
Altitude
Unknown
Speed
Unknown
Apparent Right ascension
Unknown
Apparent Declination
Unknown
Sunlit
N/A
Visualization observer readout
Local Sidereal Time
12:19:03
Azimuth
Unknown
Elevation
Unknown
Doppler factor
Unknown
Orbital elements
Apogee altitude
572.214 km
Perigee altitude
567.678 km
Semi-major axis
6,948.083 km
Eccentricity
0.00033
Inclination
70.0032°
RAAN
324.0252°
Arg. of periapsis
273.481°
True anomaly
86.63494°
Mean anomaly
86.5976°
Eccentric anomaly
86.61627°
Mean motion
3.74753 °/min
Orbital period
96.06 mins
BSTAR
0.00019284
Loading maneuver chart data...
Computing Atmospheric mass density...
Loading historical data...
Loading historical data...
Loading historical data...
Loading historical data...
Loading historical data...
Loading historical data...
Loading historical data...

Documentation

Showing up to 5 results
|